When you browse on this site, cookies collect data to enhance your experience and personalize the content and advertising you see.
Visit our Privacy Policy to learn more. By continuing to use the site, you agree to this use of cookies and data.
  • In Switzerland
  • List of Countries
  • For 7 days
  • Water Temperature
  • Satellite Maps
  • Weather Map
  • Weather Widgets
  • user-avatar
    Login

    Hourly Weather Lohne

    Today, 23 July, Tuesday

    Time Temperature Precipitation Wind Pressure Humidity
    00:00 +20°C° 0 mm 1 mps 760 mmHg 87%
    01:00 +17°C° 0 mm 0 mps 760 mmHg 89%
    02:00 +17°C° 0 mm 0 mps 760 mmHg 89%
    03:00 +17°C° 0 mm 0 mps 760 mmHg 90%
    04:00 +17°C° 0 mm 0 mps 760 mmHg 91%
    05:00 +18°C° 0 mm 0 mps 760 mmHg 87%
    06:00 +21°C° 0 mm 1 mps 760 mmHg 84%
    07:00 +22°C° 0 mm 1 mps 760 mmHg 80%
    08:00 +24°C° 0 mm 1 mps 760 mmHg 73%
    09:00 +26°C° 0 mm 1 mps 760 mmHg 65%
    10:00 +28°C° 0 mm 1 mps 760 mmHg 57%
    11:00 +29°C° 0 mm 1 mps 759 mmHg 53%
    12:00 +30°C° 0 mm 1 mps 759 mmHg 49%
    13:00 +29°C° 0 mm 0 mps 759 mmHg 46%
    14:00 +31°C° 0 mm 1 mps 759 mmHg 45%
    15:00 +31°C° 0 mm 1 mps 758 mmHg 44%
    16:00 +32°C° 0 mm 1 mps 758 mmHg 44%
    17:00 +31°C° 0 mm 1 mps 758 mmHg 50%
    18:00 +29°C° 0 mm 2 mps 758 mmHg 55%
    19:00 +28°C° 0 mm 2 mps 757 mmHg 61%
    20:00 +27°C° 0 mm 2 mps 757 mmHg 64%
    21:00 +25°C° 0 mm 2 mps 758 mmHg 67%
    22:00 +24°C° 0 mm 2 mps 758 mmHg 70%
    23:00 +23°C° 0 mm 2 mps 757 mmHg 72%

    Tomorrow, 24 July, Wednesday

    Time Temperature Precipitation Wind Pressure Humidity
    00:00 +23°C° 0 mm 2 mps 757 mmHg 73%
    01:00 +21°C° 0 mm 2 mps 757 mmHg 75%
    02:00 +21°C° 0 mm 2 mps 756 mmHg 76%
    03:00 +21°C° 0 mm 2 mps 756 mmHg 77%
    04:00 +20°C° 0 mm 2 mps 756 mmHg 78%
    05:00 +21°C° 0 mm 2 mps 756 mmHg 76%
    06:00 +24°C° 0 mm 2 mps 756 mmHg 75%
    07:00 +25°C° 0 mm 2 mps 756 mmHg 73%
    08:00 +27°C° 0 mm 2 mps 756 mmHg 67%
    09:00 +29°C° 0 mm 2 mps 755 mmHg 61%
    10:00 +31°C° 0 mm 2 mps 755 mmHg 55%
    11:00 +33°C° 0 mm 3 mps 755 mmHg 51%
    12:00 +34°C° 0 mm 3 mps 755 mmHg 48%
    13:00 +35°C° 0 mm 3 mps 755 mmHg 44%
    14:00 +35°C° 0 mm 3 mps 755 mmHg 44%
    15:00 +36°C° 0 mm 3 mps 754 mmHg 43%
    16:00 +36°C° 0 mm 3 mps 754 mmHg 43%
    17:00 +35°C° 0 mm 3 mps 754 mmHg 49%
    18:00 +33°C° 0 mm 3 mps 754 mmHg 55%
    19:00 +31°C° 0 mm 3 mps 754 mmHg 61%
    20:00 +30°C° 0 mm 3 mps 754 mmHg 64%
    21:00 +28°C° 0 mm 3 mps 755 mmHg 67%
    22:00 +26°C° 0 mm 3 mps 755 mmHg 71%
    23:00 +26°C° 0 mm 3 mps 755 mmHg 71%

    Day after tomorrow, 25 July, Thursday

    Time Temperature Precipitation Wind Pressure Humidity
    00:00 +25°C° 0 mm 2 mps 755 mmHg 71%
    01:00 +25°C° 0 mm 2 mps 755 mmHg 70%
    02:00 +24°C° 0 mm 2 mps 755 mmHg 70%
    03:00 +24°C° 0 mm 2 mps 755 mmHg 70%
    04:00 +24°C° 0 mm 2 mps 755 mmHg 69%
    05:00 +25°C° 0 mm 2 mps 755 mmHg 68%
    06:00 +26°C° 0 mm 2 mps 755 mmHg 68%
    07:00 +26°C° 0 mm 2 mps 755 mmHg 67%
    08:00 +29°C° 0 mm 2 mps 755 mmHg 62%
    09:00 +31°C° 0 mm 2 mps 755 mmHg 56%
    10:00 +34°C° 0 mm 2 mps 756 mmHg 51%
    11:00 +35°C° 0 mm 2 mps 755 mmHg 47%
    12:00 +36°C° 0 mm 2 mps 755 mmHg 43%
    13:00 +37°C° 0 mm 2 mps 755 mmHg 39%
    14:00 +37°C° 0 mm 3 mps 755 mmHg 39%
    15:00 +37°C° 0 mm 3 mps 755 mmHg 39%
    16:00 +37°C° 0 mm 3 mps 755 mmHg 39%
    17:00 +35°C° 0 mm 4 mps 754 mmHg 47%
    18:00 +33°C° 0 mm 4 mps 754 mmHg 55%
    19:00 +32°C° 0 mm 4 mps 754 mmHg 62%
    20:00 +29°C° 0 mm 3 mps 755 mmHg 62%
    21:00 +27°C° 0 mm 3 mps 755 mmHg 61%
    22:00 +26°C° 0 mm 3 mps 755 mmHg 61%
    23:00 +25°C° 0 mm 3 mps 755 mmHg 60%

    26 July, Friday

    Time Temperature Precipitation Wind Pressure Humidity
    00:00 +25°C° 0 mm 3 mps 755 mmHg 60%
    01:00 +24°C° 0 mm 2 mps 755 mmHg 59%
    02:00 +24°C° 0 mm 2 mps 755 mmHg 61%
    03:00 +23°C° 0 mm 2 mps 754 mmHg 63%
    04:00 +21°C° 0 mm 2 mps 754 mmHg 64%
    05:00 +23°C° 0 mm 2 mps 754 mmHg 65%
    06:00 +24°C° 0 mm 3 mps 754 mmHg 65%
    07:00 +25°C° 0 mm 3 mps 754 mmHg 65%
    08:00 +26°C° 0 mm 4 mps 754 mmHg 61%
    09:00 +28°C° 0 mm 5 mps 754 mmHg 56%
    10:00 +30°C° 0 mm 5 mps 754 mmHg 52%
    11:00 +30°C° 0 mm 5 mps 754 mmHg 50%
    12:00 +32°C° 0 mm 6 mps 753 mmHg 48%
    13:00 +33°C° 0 mm 6 mps 753 mmHg 46%
    14:00 +33°C° 0 mm 6 mps 753 mmHg 46%
    15:00 +33°C° 0 mm 6 mps 752 mmHg 47%
    16:00 +33°C° 0 mm 6 mps 752 mmHg 47%
    17:00 +32°C° 0 mm 6 mps 752 mmHg 51%
    18:00 +29°C° 0 mm 5 mps 752 mmHg 54%
    19:00 +28°C° 0 mm 5 mps 752 mmHg 58%
    20:00 +27°C° 0 mm 5 mps 752 mmHg 58%
    21:00 +26°C° 0 mm 5 mps 752 mmHg 59%
    22:00 +23°C° 0 mm 5 mps 752 mmHg 60%
    23:00 +22°C° 0 mm 5 mps 752 mmHg 61%

    27 July, Saturday

    Time Temperature Precipitation Wind Pressure Humidity
    00:00 +21°C° 0 mm 5 mps 751 mmHg 62%
    01:00 +20°C° 0 mm 5 mps 751 mmHg 64%
    02:00 +19°C° 0 mm 4 mps 751 mmHg 68%
    03:00 +19°C° 0 mm 4 mps 750 mmHg 72%
    04:00 +18°C° 0 mm 3 mps 750 mmHg 76%
    05:00 +19°C° 0 mm 4 mps 750 mmHg 75%
    06:00 +19°C° 0 mm 4 mps 750 mmHg 74%
    07:00 +20°C° 0 mm 4 mps 750 mmHg 74%
    08:00 +22°C° 0 mm 5 mps 750 mmHg 67%
    09:00 +24°C° 0 mm 6 mps 750 mmHg 60%
    10:00 +27°C° 0 mm 7 mps 749 mmHg 53%
    11:00 +28°C° 0 mm 7 mps 749 mmHg 51%
    12:00 +28°C° 0 mm 7 mps 749 mmHg 49%
    13:00 +29°C° 0 mm 7 mps 749 mmHg 47%
    14:00 +29°C° 0 mm 7 mps 748 mmHg 47%
    15:00 +29°C° 0 mm 7 mps 748 mmHg 47%
    16:00 +29°C° 0 mm 7 mps 748 mmHg 48%
    17:00 +28°C° 0 mm 6 mps 748 mmHg 52%
    18:00 +27°C° 0 mm 5 mps 748 mmHg 56%
    19:00 +26°C° 0 mm 5 mps 748 mmHg 60%
    20:00 +25°C° 0 mm 5 mps 748 mmHg 61%
    21:00 +23°C° 0 mm 4 mps 748 mmHg 62%
    22:00 +22°C° 0 mm 4 mps 749 mmHg 63%
    23:00 +22°C° 0 mm 4 mps 749 mmHg 66%

    28 July, Sunday

    Time Temperature Precipitation Wind Pressure Humidity
    00:00 +21°C° 0 mm 4 mps 749 mmHg 68%
    01:00 +21°C° 0 mm 4 mps 749 mmHg 70%
    02:00 +20°C° 0 mm 4 mps 749 mmHg 73%
    03:00 +20°C° 0 mm 3 mps 749 mmHg 76%
    04:00 +19°C° 0 mm 3 mps 749 mmHg 79%
    05:00 +20°C° 0 mm 4 mps 749 mmHg 76%
    06:00 +21°C° 0 mm 4 mps 749 mmHg 74%
    07:00 +21°C° 0 mm 4 mps 750 mmHg 72%
    08:00 +23°C° 0 mm 5 mps 750 mmHg 67%
    09:00 +26°C° 0 mm 5 mps 750 mmHg 62%
    10:00 +27°C° 0 mm 6 mps 750 mmHg 57%
    11:00 +28°C° 0 mm 6 mps 750 mmHg 55%
    12:00 +29°C° 0 mm 6 mps 750 mmHg 53%
    13:00 +30°C° 0 mm 6 mps 750 mmHg 50%
    14:00 +30°C° 0 mm 6 mps 750 mmHg 50%
    15:00 +32°C° 0 mm 6 mps 750 mmHg 49%
    16:00 +32°C° 0 mm 6 mps 750 mmHg 48%
    17:00 +30°C° 0 mm 5 mps 750 mmHg 52%
    18:00 +29°C° 0 mm 3 mps 750 mmHg 57%
    19:00 +29°C° 0 mm 2 mps 750 mmHg 61%
    20:00 +27°C° 0 mm 2 mps 751 mmHg 63%
    21:00 +26°C° 0 mm 2 mps 751 mmHg 65%
    22:00 +24°C° 0 mm 2 mps 752 mmHg 67%
    23:00 +24°C° 0 mm 2 mps 752 mmHg 70%
    Show more